Location: Krakow
(50.0830°N, 19.9170°E)
Time: 14:32:35
(UTC+02:00)

Tiros 1 - Pass Details

Date: 04 February 2023
Orbit: 627 x 662 km, 48.4° (Epoch: 01 April)

Event Time Altitude Azimuth Distance (km) Brightness Sun altitude
Exits shadow 05:31:13 23° 242° (WSW) 1,381 8.4 -16.1°
Maximum altitude 05:32:41 27° 213° (SSW) 1,246 8.4 -15.8°
Drops below altitude 10° 05:36:36 10° 156° (SSE) 2,043 10.1 -15.2°
Sets 05:39:13 0° 144° (SE) 2,957 11.2 -14.8°
